Stations météo

réclame
Mon MeteoGroup
Volkel, Pays-Bas (6375): Température de l'air & dewpoint: 08.08.2018 17:00:00 - 14.08.2018 17:00:00 (CEST)Volkel, Pays-Bas (6375): Température de l'air 5cm: 08.08.2018 17:00:00 - 14.08.2018 17:00:00 (CEST)Volkel, Pays-Bas (6375): Vitesse du vent & gusts: 08.08.2018 17:00:00 - 14.08.2018 17:00:00 (CEST)Volkel, Pays-Bas (6375): Direction du vent: 08.08.2018 17:00:00 - 14.08.2018 17:00:00 (CEST)Volkel, Pays-Bas (6375): reduced air pressure: 08.08.2018 17:00:00 - 14.08.2018 17:00:00 (CEST)Volkel, Pays-Bas (6375): visibility: 08.08.2018 17:00:00 - 14.08.2018 17:00:00 (CEST)Volkel, Pays-Bas (6375): Quantités de précipitations: 08.08.2018 17:00:00 - 14.08.2018 17:00:00 (CEST)
Date & Time tt [°C] td [°C] tt 5cm [°C] ff [km/h] ff [knt] fx [km/h] fx [knt] dd ppp [hPa] vv [km] rr [mm]
14.08.2018 17:00:00 22,0 14,0 22,1 13 7 - - WNW 1015,9 10 -
14.08.2018 16:00:00 22,8 13,7 23,8 15 8 36 19 WNW 1015,4 10 0,0
14.08.2018 15:00:00 23,0 12,7 24,2 15 8 32 18 W 1015,1 10 0,0
14.08.2018 14:00:00 22,6 13,0 24,6 16 9 29 16 W 1014,6 10 0,0
14.08.2018 13:00:00 22,8 13,5 24,0 15 8 36 19 W 1014,3 10 0,0
14.08.2018 12:00:00 22,0 13,7 21,6 18 10 32 18 W 1013,9 10 0,0
14.08.2018 11:00:00 20,5 14,4 20,0 16 9 36 19 W 1013,7 10 0,0
14.08.2018 10:00:00 19,1 14,3 19,2 16 9 25 14 W 1013,3 10 0,0
14.08.2018 09:00:00 18,9 15,4 18,7 13 7 22 12 W 1012,5 10 0,0
14.08.2018 08:00:00 17,8 16,4 17,4 9 5 18 10 W 1011,8 6 0,0
14.08.2018 07:00:00 17,3 16,8 17,1 11 6 22 12 WSW 1010,8 3,5 0,0
14.08.2018 06:00:00 17,0 16,6 16,8 13 7 25 14 SW 1010,1 2,9 0,0
14.08.2018 05:00:00 17,1 16,6 16,8 16 9 22 12 SW 1009,8 3,4 0,0
14.08.2018 04:00:00 16,7 16,4 16,5 15 8 22 12 SW 1009,5 3,9 0,0
14.08.2018 03:00:00 16,5 16,1 16,2 15 8 18 10 SW 1009,2 4,7 0,0
14.08.2018 02:00:00 16,4 15,9 16,0 13 7 18 10 SW 1009,2 6 0,0
14.08.2018 01:00:00 16,5 16,0 16,0 11 6 14 8 SW 1009,0 5 0,0
14.08.2018 00:00:00 15,9 15,5 15,3 11 6 14 8 SW 1008,7 7 0,0
13.08.2018 23:00:00 16,1 15,7 15,2 9 5 14 8 SW 1008,2 8 0,0
13.08.2018 22:00:00 15,7 15,6 15,1 8 4 14 8 SSW 1007,9 7 0,0
13.08.2018 21:00:00 16,9 16,2 16,7 11 6 22 12 SW 1007,4 10 0,1
13.08.2018 20:00:00 16,4 15,3 16,3 15 8 29 16 WSW 1007,3 6 2,1
13.08.2018 19:00:00 18,2 16,0 18,1 18 10 29 16 SSW 1006,8 10 0,1
13.08.2018 18:00:00 18,8 16,9 18,8 16 9 22 12 SW 1006,5 10 0,0
13.08.2018 17:00:00 18,5 17,4 18,5 9 5 25 14 WSW 1006,3 10 0,7
13.08.2018 16:00:00 19,9 16,6 20,2 21 11 36 19 W 1006,1 10 0,2
13.08.2018 15:00:00 19,3 17,3 19,4 8 4 25 14 SSW 1005,6 10 0,1
13.08.2018 14:00:00 19,5 18,8 18,9 9 5 22 12 S 1005,6 6 3,5
13.08.2018 13:00:00 19,6 17,0 19,6 11 6 22 12 SSW 1005,9 10 0,1
13.08.2018 12:00:00 19,6 16,9 19,8 15 8 25 14 SSW 1006,2 10 0,0
13.08.2018 11:00:00 20,1 17,8 20,4 15 8 25 14 SSW 1006,2 10 0,2
13.08.2018 10:00:00 18,7 17,1 19,0 13 7 22 12 SSW 1006,1 10 0,2
13.08.2018 09:00:00 18,1 16,7 17,8 11 6 18 10 SSW 1006,1 10 0,0
13.08.2018 08:00:00 16,4 15,4 16,0 9 5 14 8 SSW 1005,7 10 0,8
13.08.2018 07:00:00 16,6 14,4 16,2 11 6 22 12 S 1006,0 10 0,7
13.08.2018 06:00:00 19,0 11,7 18,6 13 7 25 14 S 1006,3 10 0,0
13.08.2018 05:00:00 18,9 11,7 17,8 5 3 11 6 SSE 1005,9 10 0,0
13.08.2018 04:00:00 18,1 12,9 17,2 4 2 7 4 - 1006,3 10 0,0
13.08.2018 03:00:00 18,4 13,3 17,6 5 3 7 4 ESE 1006,9 10 0,0
13.08.2018 02:00:00 20,0 12,1 19,1 4 2 11 6 SE 1007,5 10 0,0
13.08.2018 01:00:00 21,4 10,9 19,9 8 4 11 6 SE 1008,1 10 0,0
13.08.2018 00:00:00 20,7 12,1 18,1 5 3 11 6 SSE 1008,5 10 0,0
12.08.2018 23:00:00 20,8 12,1 15,6 5 3 7 4 SSE 1009,1 10 0,0
12.08.2018 22:00:00 20,5 13,9 17,9 2 1 4 2 E 1009,5 10 0,0
12.08.2018 21:00:00 21,7 13,4 20,0 0 0 4 2 N 1009,8 10 0,0
12.08.2018 20:00:00 25,0 11,4 24,7 5 3 11 6 S 1009,8 10 0,0
12.08.2018 19:00:00 26,5 10,5 26,8 9 5 25 14 S 1010,5 10 0,0
12.08.2018 18:00:00 27,1 9,4 28,5 15 8 29 16 S 1011,1 10 0,0
12.08.2018 17:00:00 27,5 9,3 29,6 15 8 29 16 SSW 1011,7 10 0,0
12.08.2018 16:00:00 27,2 9,5 30,1 16 9 32 18 S 1012,6 10 0,0
12.08.2018 15:00:00 27,4 9,5 30,6 16 9 29 16 SSW 1013,4 10 0,0
12.08.2018 14:00:00 27,1 10,4 30,0 16 9 29 16 S 1014,2 10 0,0
12.08.2018 13:00:00 25,5 10,8 28,8 15 8 32 18 SSW 1014,8 10 0,0
12.08.2018 12:00:00 23,8 11,4 26,1 16 9 25 14 SSW 1015,8 10 0,0
12.08.2018 11:00:00 21,0 10,3 22,6 15 8 25 14 SSW 1016,2 10 0,0
12.08.2018 10:00:00 18,8 10,1 19,3 15 8 22 12 SSW 1016,6 10 0,0
12.08.2018 09:00:00 16,4 9,9 16,6 9 5 14 8 S 1017,0 10 0,0
12.08.2018 08:00:00 15,1 9,9 14,9 8 4 14 8 S 1017,2 10 0,0
12.08.2018 07:00:00 14,5 9,3 14,2 9 5 14 8 S 1017,3 10 0,0
12.08.2018 06:00:00 14,1 9,3 13,5 8 4 14 8 S 1017,5 10 0,0
12.08.2018 05:00:00 13,4 9,4 11,8 5 3 11 6 SSE 1018,3 10 0,0
12.08.2018 04:00:00 12,6 9,0 10,5 5 3 11 6 SSE 1019,1 10 0,0
12.08.2018 03:00:00 13,0 9,3 10,4 8 4 11 6 SSE 1019,6 10 0,0
12.08.2018 02:00:00 12,6 9,5 9,7 5 3 11 6 SE 1020,2 10 0,0
12.08.2018 01:00:00 11,9 9,8 7,1 2 1 4 2 ESE 1020,6 10 0,0
12.08.2018 00:00:00 11,3 9,9 6,1 2 1 4 2 SE 1021,1 10 0,0
11.08.2018 23:00:00 12,2 9,7 6,6 0 0 4 2 N 1021,5 10 0,0
11.08.2018 22:00:00 12,7 9,1 8,4 4 2 7 4 NNW 1021,9 10 0,0
11.08.2018 21:00:00 17,2 9,2 15,6 4 2 14 8 - 1022,0 10 0,0
11.08.2018 20:00:00 19,4 8,6 19,8 9 5 22 12 NW 1022,0 10 0,0
11.08.2018 19:00:00 20,1 8,4 20,8 11 6 22 12 W 1022,2 10 0,0
11.08.2018 18:00:00 20,8 8,1 22,9 13 7 29 16 W 1022,2 10 0,0
11.08.2018 17:00:00 20,5 7,7 21,1 15 8 29 16 WSW 1022,4 10 0,0
11.08.2018 16:00:00 22,3 7,4 23,3 18 10 36 19 WSW 1022,4 10 0,0
11.08.2018 15:00:00 21,9 7,5 22,0 15 8 29 16 W 1022,6 10 0,0
11.08.2018 14:00:00 21,3 7,6 24,9 22 12 36 19 WSW 1022,8 10 0,0
11.08.2018 13:00:00 20,3 6,7 23,4 16 9 36 19 W 1022,8 10 0,0
11.08.2018 12:00:00 19,8 9,2 20,5 16 9 36 19 W 1022,9 10 0,0
11.08.2018 11:00:00 17,5 9,0 18,4 16 9 36 19 WSW 1022,7 10 0,0
11.08.2018 10:00:00 17,3 11,5 17,8 18 10 25 14 WSW 1022,6 10 0,0
11.08.2018 09:00:00 15,5 12,6 15,8 13 7 22 12 SW 1022,1 10 0,0
11.08.2018 08:00:00 13,5 12,6 13,4 13 7 18 10 SW 1021,6 10 0,0
11.08.2018 07:00:00 11,8 11,7 11,3 13 7 18 10 SW 1021,1 9 0,0
11.08.2018 06:00:00 11,6 11,4 11,1 13 7 18 10 SW 1020,6 10 0,0
11.08.2018 05:00:00 11,9 11,5 11,4 13 7 18 10 SW 1020,1 10 0,0
11.08.2018 04:00:00 12,4 12,1 11,9 9 5 14 8 SW 1019,9 9 0,0
11.08.2018 03:00:00 12,6 12,1 12,3 11 6 18 10 WSW 1020,2 10 0,0
11.08.2018 02:00:00 13,1 12,3 12,8 16 9 32 18 SW 1020,1 10 1,3
11.08.2018 01:00:00 13,7 12,3 13,5 22 12 40 21 WSW 1020,2 10 2,7
11.08.2018 00:00:00 17,1 11,2 16,7 13 7 32 18 WSW 1019,3 10 0,0
10.08.2018 23:00:00 18,6 9,6 18,4 18 10 36 19 WSW 1019,3 10 0,0
10.08.2018 22:00:00 20,3 7,0 19,9 21 11 29 16 SW 1019,1 10 0,0
10.08.2018 21:00:00 20,6 6,9 20,2 16 9 36 19 SSW 1019,1 10 0,0
10.08.2018 20:00:00 21,4 6,2 21,2 24 13 36 19 SSW 1019,0 10 0,0
10.08.2018 19:00:00 21,6 7,3 22,0 22 12 40 21 SW 1019,4 10 0,0
10.08.2018 18:00:00 22,4 7,9 21,7 24 13 36 19 SW 1019,9 10 0,0
10.08.2018 17:00:00 22,4 8,1 23,7 24 13 43 23 WSW 1020,7 10 0,0
10.08.2018 16:00:00 21,3 7,3 22,0 29 16 50 27 SW 1020,9 10 0,0
10.08.2018 15:00:00 21,7 7,9 22,8 35 19 54 29 SW 1021,1 10 0,0
10.08.2018 14:00:00 20,3 8,9 21,7 29 16 47 25 SW 1021,2 10 0,0
10.08.2018 13:00:00 20,7 9,3 20,7 26 14 40 21 SW 1021,1 10 -
10.08.2018 12:00:00 18,9 9,8 19,6 24 13 40 21 SW 1021,4 10 -
10.08.2018 11:00:00 19,0 11,1 20,3 26 14 36 19 SW 1021,2 10 -
10.08.2018 10:00:00 17,6 12,7 18,3 16 9 29 16 SSW 1021,1 10 -
10.08.2018 09:00:00 15,5 13,0 15,6 16 9 25 14 SSW 1020,7 10 -
10.08.2018 08:00:00 14,1 12,7 13,9 15 8 25 14 SSW 1020,2 10 -
10.08.2018 07:00:00 12,8 12,0 12,3 15 8 22 12 SSW 1019,8 10 -
10.08.2018 06:00:00 12,5 11,8 11,5 11 6 18 10 SW 1019,3 10 -
10.08.2018 05:00:00 12,8 12,1 12,2 16 9 29 16 SW 1019,0 10 -
10.08.2018 04:00:00 13,1 12,0 12,6 21 11 29 16 WSW 1018,5 10 -
10.08.2018 03:00:00 13,4 12,1 12,8 21 11 29 16 SW 1017,7 10 -
10.08.2018 02:00:00 13,9 12,5 13,4 18 10 36 19 WSW 1016,5 10 -
10.08.2018 01:00:00 14,7 13,3 14,4 22 12 50 27 WSW 1015,1 10 -
10.08.2018 00:00:00 15,5 14,7 15,3 24 13 40 21 WSW 1013,3 3,3 -
09.08.2018 23:00:00 16,4 15,7 16,3 24 13 43 23 WSW 1011,6 6 -
09.08.2018 22:00:00 17,3 15,7 17,2 21 11 54 29 WSW 1010,2 4,9 -
09.08.2018 21:00:00 19,3 14,8 18,7 42 23 65 35 SW 1008,9 10 -
09.08.2018 20:00:00 20,7 15,0 20,1 46 25 68 37 SW 1007,2 10 -
09.08.2018 19:00:00 22,1 17,9 21,7 22 12 50 27 S 1005,9 10 -
09.08.2018 18:00:00 21,8 19,9 21,9 11 6 18 10 SSE 1006,4 7 -
09.08.2018 17:00:00 19,9 19,1 19,4 4 2 11 6 - 1007,2 7 -
09.08.2018 16:00:00 18,6 18,1 18,8 5 3 18 10 WNW 1007,5 2,7 -
09.08.2018 15:00:00 18,1 17,5 18,2 8 4 29 16 NNW 1007,7 5 -
09.08.2018 14:00:00 17,9 17,3 18,0 15 8 32 18 - 1009,8 4,3 -
09.08.2018 13:00:00 21,5 16,1 22,0 24 13 32 18 ENE 1009,4 10 0,0
09.08.2018 12:00:00 19,4 17,1 18,6 21 11 29 16 E 1010,9 7 2,0
09.08.2018 11:00:00 22,1 11,5 22,2 15 8 29 16 ENE 1011,8 10 0,0
09.08.2018 10:00:00 22,4 13,1 22,9 13 7 25 14 E 1012,5 10 0,0
09.08.2018 09:00:00 20,0 13,4 20,2 11 6 18 10 ENE 1013,2 10 0,0
09.08.2018 08:00:00 17,1 13,1 16,1 8 4 14 8 E 1013,8 10 0,0
09.08.2018 07:00:00 12,1 11,6 10,9 8 4 11 6 E 1014,4 10 0,0
09.08.2018 06:00:00 11,2 10,6 6,1 4 2 7 4 - 1014,5 10 0,0
09.08.2018 05:00:00 11,4 10,7 6,0 4 2 7 4 NE 1014,9 10 0,0
09.08.2018 04:00:00 10,6 10,2 5,0 4 2 4 2 ENE 1015,2 10 0,0
09.08.2018 03:00:00 11,0 10,8 5,1 4 2 4 2 - 1015,7 10 0,0
09.08.2018 02:00:00 11,3 11,0 5,5 0 0 4 2 N 1015,7 10 0,0
09.08.2018 01:00:00 11,8 11,1 6,2 2 1 4 2 - 1015,7 10 0,0
09.08.2018 00:00:00 13,3 11,5 7,1 0 0 0 0 N 1015,7 10 0,0
08.08.2018 23:00:00 14,4 11,3 8,5 2 1 4 2 E 1015,8 10 0,0
08.08.2018 22:00:00 16,1 11,7 11,4 2 1 11 6 WNW 1015,6 10 0,0
08.08.2018 21:00:00 19,9 11,2 18,6 5 3 18 10 WNW 1014,9 10 0,0
08.08.2018 20:00:00 21,7 11,8 22,0 11 6 22 12 W 1014,6 10 0,0
08.08.2018 19:00:00 22,4 12,1 22,9 16 9 29 16 WSW 1014,1 10 0,0
08.08.2018 18:00:00 23,3 11,3 24,4 24 13 36 19 SW 1014,0 10 0,0
08.08.2018 17:00:00 23,8 12,4 24,8 22 12 36 19 SW 1013,9 10 0,0

tt = Température de l'air
td = dewpoint
tt 5cm = Température de l'air 5cm
ff = Vitesse du vent
fx = gusts
dd = Direction du vent
ppp = reduced air pressure
vv = visibility
rr = Quantités de précipitations

stations d'obs. à proximité